SCP
0 0 0 0 0 0 0 0 0 1 1 1 1 1 1 1 1 1 1 1 1 1 1 1 1 1 1 1 0 1 1 1 1 1 1 0 1 0 0 -0 0 0 0
0 0 0 0 0 0 0 0 0 1 1 0 1 1 1 1 1 1 2 1 1 1 1 1 1 1 1 1 1 1 1 1 1 1 1 0 0 0 0 0 0 0 0
0 0 0 0 0 0 0 0 0 0 0 0 1 1 2 1 1 2 2 1 1 1 1 1 1 2 1 1 1 1 1 1 1 0 0 0 0 0 0 0 0 0 0
0 0 0 0 0 0 0 0 0 0 0 1 1 1 1 1 1 1 2 2 1 1 1 1 1 1 1 1 1 1 0 1 0 0 0 0 0 0 0 0 0 0 0
0 0 0 0 0 0 0 0 0 0 0 0 0 1 1 2 2 2 2 2 1 1 1 1 1 2 1 1 1 1 0 0 0 0 0 0 0 0 0 0 0 0 0
0 0 0 0 0 0 0 0 0 1 0 1 1 1 1 2 2 2 2 2 2 1 1 1 1 1 1 1 0 0 0 0 0 0 0 0 0 0 0 0 0 0 0
0 0 0 0 0 0 0 0 0 0 0 1 1 1 2 2 2 1 1 1 1 1 1 1 1 1 1 0 0 0 0 0 0 0 0 0 0 0 0 0 0 0 0
0 0 0 0 0 0 0 0 0 0 0 1 1 1 1 1 1 1 1 1 1 1 1 1 1 0 0 0 0 0 0 0 0 0 0 -0 -0 -0 -0 0 0 0 0
0 0 0 0 0 0 0 0 0 1 0 1 1 1 1 1 1 1 1 1 1 1 1 1 0 0 0 0 0 0 0 0 0 0 0 -0 -0 -0 -0 0 0 0 0
0 0 0 0 0 0 0 0 0 0 1 1 1 1 0 0 0 0 1 1 1 0 0 0 0 0 0 0 0 0 0 0 0 0 0 0 -0 -0 -0 -0 0 0 0
0 0 0 0 0 0 0 0 1 1 1 1 0 0 0 0 0 1 1 1 0 0 0 0 0 0 0 0 0 0 0 0 0 0 0 0 0 0 0 0 0 0 0
0 0 0 0 1 1 1 1 1 1 0 0 0 0 0 0 0 0 0 0 0 0 0 0 0 0 0 0 0 0 0 0 0 0 0 0 0 0 0 0 0 0 0
0 0 0 0 1 1 1 0 0 0 0 0 0 0 0 0 0 0 0 0 0 0 0 0 0 0 0 0 0 0 0 0 0 0 0 0 0 0 0 0 0 0 0
0 0 0 0 1 1 0 0 0 0 0 0 0 0 0 0 0 0 0 0 0 0 0 0 0 0 0 0 0 0 0 0 0 0 0 0 0 0 0 0 0 0 0
0 0 0 0 1 0 0 0 0 0 0 0 0 0 0 0 0 0 0 0 0 0 0 0 0 0 0 0 0 0 0 0 0 0 0 0 0 0 0 0 0 0 0
0 0 0 0 0 0 0 0 0 0 0 0 0 0 0 0 0 0 0 0 0 0 0 0 0 0 0 0 0 0 0 0 0 0 0 0 0 0 0 0 0 0 0
0 0 0 1 0 0 0 0 0 0 0 0 0 0 0 0 0 0 0 0 0 0 0 0 0 0 0 0 0 0 0 0 0 0 -0 0 0 0 0 0 0 0 0
0 0 0 1 0 0 0 0 0 0 0 0 0 0 0 0 0 0 -0 0 0 0 0 0 0 0 0 0 0 -0 0 0 -0 -0 -0 0 0 0 0 0 0 0 0
0 0 0 1 1 0 0 0 0 0 0 0 0 0 0 0 -0 -0 -0 0 0 0 0 0 0 0 0 0 0 0 0 -0 -0 -0 -0 0 0 0 0 0 0 0 0
0 0 1 1 0 0 0 0 0 0 0 0 0 0 0 0 -0 0 0 0 0 0 0 0 0 0 0 0 0 0 -0 -0 -0 0 0 0 0 -0 -0 0 0 0 0
0 0 1 1 0 0 0 0 0 0 0 0 0 0 0 -0 -0 -0 0 0 0 0 0 0 0 0 0 0 0 0 -0 0 0 0 0 0 0 -0 -0 0 0 0 0
0 0 1 1 0 0 0 0 0 0 0 0 0 -0 -0 -0 -0 -0 -0 -0 -0 0 0 0 0 0 0 0 0 0 0 -0 -0 0 -0 0 -0 -0 -0 0 0 0 0
1 1 1 0 0 0 0 0 0 0 0 0 0 -0 -0 -0 -0 -0 -0 -0 -0 -0 -0 0 0 0 0 0 0 0 0 0 -0 -0 -0 -0 -0 -0 0 0 0 0 0
1 1 1 0 0 0 0 0 0 0 0 0 0 -0 -0 -0 -0 -0 -0 -0 -0 -0 -0 0 0 0 0 0 0 0 0 0 -0 -0 0 0 0 0 0 0 -0 0 0
1 1 1 0 0 0 0 0 0 0 0 0 0 -0 0 -0 -0 -0 -0 -0 0 0 0 0 0 -0 -0 -0 0 0 0 0 0 -0 0 0 0 0 0 0 0 0 0
1 1 1 0 0 0 0 0 0 0 0 0 0 0 0 -0 -0 -0 -0 -0 -0 0 0 0 0 0 -0 -0 -0 -0 -0 0 0 0 0 0 0 0 0 0 0 0 0
Wind_Speed_500mb
54 52 50 48 49 55 60 57 53 54 48 45 38 36 40 39 34 36 40 33 30 31 34 30 32 29 28 33 35 33 31 24 25 20 27 33 42 51 50 48 37 32 27
60 56 55 48 48 53 54 49 45 43 43 43 37 32 29 29 29 30 31 29 30 32 29 32 28 24 25 32 34 31 25 23 26 24 28 18 24 31 38 35 28 32 31
63 63 56 52 49 48 51 50 49 48 47 44 39 35 33 31 29 30 27 30 29 28 31 32 31 30 25 28 30 30 29 24 27 33 24 12 13 8 22 28 30 31 34
59 57 59 60 61 60 53 52 62 59 55 46 39 37 30 28 25 26 25 26 28 30 33 33 33 27 24 26 25 27 26 27 25 22 30 26 16 9 9 15 22 25 24
59 65 68 67 63 58 49 47 60 56 48 44 37 39 33 27 25 29 29 29 32 32 32 31 32 31 25 24 27 26 28 26 24 22 19 23 20 18 9 12 15 20 18
35 41 41 37 45 44 42 40 43 44 42 40 39 35 33 31 33 32 33 30 29 30 29 29 28 26 24 24 24 24 24 24 21 18 25 20 20 18 12 9 17 21 23
23 27 25 24 26 31 39 38 41 36 33 32 34 36 35 33 33 34 33 34 31 27 31 30 28 24 23 20 19 19 18 19 17 19 17 19 20 13 13 13 16 17 15
18 23 25 29 27 27 32 38 34 32 33 37 39 38 37 32 32 32 32 28 27 26 29 26 23 19 18 16 16 14 15 19 18 21 22 20 19 16 15 15 15 15 13
25 25 28 25 22 26 32 34 35 36 39 40 41 42 37 35 34 34 36 31 28 26 25 22 20 17 16 16 15 15 17 19 20 22 23 22 18 18 18 16 13 16 18
31 34 25 18 10 23 29 33 36 41 41 41 40 38 38 35 38 38 31 28 27 24 22 20 18 18 17 16 15 14 15 17 15 14 18 18 19 19 22 21 13 7 15
36 37 28 14 7 22 30 37 41 43 43 41 40 41 40 40 37 31 27 26 23 20 19 19 20 19 17 18 16 16 15 15 15 16 16 18 19 20 22 22 15 13 14
36 35 29 10 12 26 34 40 41 42 41 41 42 41 41 37 32 29 25 21 20 19 21 21 21 20 20 19 15 13 13 13 12 14 16 14 12 17 22 17 20 14 14
40 35 30 9 15 28 35 38 40 40 40 41 42 41 37 32 29 26 23 21 22 23 22 21 22 22 20 18 15 13 14 13 13 10 10 12 15 13 19 19 19 16 17
39 34 28 7 14 27 34 37 39 41 42 41 39 36 32 29 28 26 24 25 25 22 21 21 21 20 18 15 14 15 15 14 13 6 17 18 18 13 18 20 21 23 23
37 34 33 4 15 29 35 37 39 41 41 39 35 33 31 29 27 25 27 27 25 24 23 23 20 19 18 15 15 14 14 18 14 5 12 24 27 23 24 25 25 29 28
36 34 31 4 21 30 35 38 41 42 39 36 34 34 30 27 24 25 28 28 27 27 25 23 19 17 15 14 12 11 13 16 14 6 7 13 21 27 27 31 32 29 29
39 35 29 11 27 34 36 41 42 41 39 36 35 33 29 24 23 24 27 28 29 27 25 23 20 15 10 8 10 12 13 14 12 9 8 11 15 38 26 28 32 32 24
39 37 28 10 30 36 40 42 42 41 39 36 35 31 27 24 23 24 28 29 28 25 23 22 17 14 8 7 9 12 13 11 9 8 3 13 22 28 26 30 33 33 25
31 34 21 13 34 42 45 46 44 42 40 39 35 30 27 25 24 24 26 27 27 23 21 18 16 12 7 9 12 14 11 7 7 9 11 9 30 30 31 38 38 37 34
31 27 19 17 40 48 50 50 48 44 42 39 35 30 26 27 25 23 24 24 24 22 20 17 14 10 9 11 13 12 9 6 8 8 11 12 26 37 34 40 44 42 39
36 28 21 29 47 50 52 53 50 46 43 38 35 31 27 28 26 25 23 23 21 21 19 16 12 13 13 16 14 12 8 9 9 11 8 12 27 43 39 35 36 40 43
31 25 25 36 51 52 55 54 49 46 43 39 34 30 28 27 26 25 23 22 22 19 19 18 16 15 20 17 15 12 8 11 11 11 11 15 31 41 35 41 39 41 44
26 22 31 44 51 54 56 53 48 50 45 39 35 30 29 27 25 24 25 23 23 21 21 21 20 20 22 18 14 12 11 13 14 15 16 19 35 37 39 38 39 43 44
25 28 40 50 52 56 54 48 51 50 46 41 37 31 30 26 22 18 21 21 21 22 23 24 22 19 21 16 14 13 17 18 20 23 24 28 32 32 40 46 42 45 42
26 37 46 51 55 57 53 49 53 51 46 42 38 34 28 26 23 18 17 18 19 19 23 23 21 18 16 19 16 18 21 24 26 28 27 31 32 40 47 47 45 42 41
35 40 47 51 55 56 53 53 53 51 48 45 40 35 30 25 22 20 24 22 20 21 28 31 24 20 16 14 14 11 24 30 31 30 32 33 39 43 45 46 40 39 39
Wind_Direction_500mb
255 263 263 263 262 278 287 280 273 269 265 276 277 267 253 242 226 217 222 232 233 228 221 208 213 210 212 231 234 227 224 235 242 249 264 264 264 263 260 261 256 236 223
261 263 264 264 270 280 271 269 273 266 269 272 270 256 240 221 211 210 225 230 224 218 211 195 196 181 196 200 213 211 218 231 244 250 262 267 259 249 250 243 235 218 209
268 268 270 271 272 264 268 270 273 273 271 268 260 253 227 222 201 205 219 218 210 202 191 188 183 187 183 208 211 216 219 236 246 249 241 247 252 212 226 235 233 229 225
260 265 270 270 267 269 266 265 269 265 271 260 247 239 211 198 201 192 190 197 190 185 185 184 188 194 184 207 212 220 227 242 243 245 244 243 259 249 209 222 222 220 213
263 267 268 266 266 262 260 256 257 262 255 253 236 229 195 198 181 170 181 173 176 180 180 181 192 198 195 215 226 224 250 248 234 236 237 228 235 233 210 189 193 210 204
260 266 264 265 257 253 246 240 241 244 241 239 223 199 187 179 169 167 160 161 166 172 179 187 190 195 205 224 226 238 252 237 230 226 226 217 221 225 218 207 184 189 191
274 279 278 273 266 246 229 221 224 231 226 206 188 179 178 174 171 163 158 161 166 172 190 187 194 206 223 227 234 237 226 231 218 221 222 226 230 222 218 206 177 172 172
315 305 295 283 268 235 216 208 206 200 183 171 165 163 164 156 156 155 161 161 163 170 190 189 197 202 216 223 226 220 210 220 215 217 218 221 221 210 211 196 170 148 163
356 332 313 293 259 223 202 192 181 171 164 159 158 158 151 148 157 156 152 157 161 177 178 186 198 204 209 210 205 206 214 216 219 223 228 228 223 217 202 205 208 179 168
360 350 331 315 249 194 181 174 168 162 156 153 153 152 151 152 156 156 152 155 167 167 186 198 192 191 190 190 187 212 213 211 222 219 228 218 215 204 196 205 201 207 173
358 356 347 328 191 170 165 161 158 155 151 150 149 147 146 148 153 155 158 168 182 190 183 180 177 178 177 179 174 193 197 195 202 206 211 219 215 194 196 202 201 220 207
357 2 -0 11 156 158 157 156 155 151 149 147 145 146 144 147 149 151 160 181 173 171 170 167 169 168 173 181 184 192 207 197 204 208 217 224 213 203 192 202 214 220 199
350 359 8 33 146 155 156 154 151 148 149 147 147 146 144 148 151 155 160 163 165 162 161 165 171 169 180 189 194 208 199 188 193 174 201 206 207 215 203 187 199 196 180
337 351 4 9 151 159 157 153 151 149 147 149 149 145 147 151 151 153 156 160 159 161 163 170 169 178 191 202 205 203 190 180 194 298 239 225 229 235 217 195 183 165 159
323 342 348 353 182 165 159 156 153 151 152 151 149 146 148 150 150 151 156 160 160 159 164 164 170 173 181 191 189 193 191 184 189 241 294 233 240 224 205 186 186 169 167
313 325 331 330 199 170 163 160 158 157 154 151 150 150 152 153 155 157 160 160 158 161 166 169 172 165 171 175 189 189 183 188 205 242 303 227 205 197 182 182 195 167 181
299 314 320 300 196 177 170 166 163 159 155 152 152 152 152 157 159 161 166 168 175 170 171 174 171 164 187 210 214 197 179 182 201 226 287 212 195 179 189 190 183 175 185
295 302 302 277 192 179 172 168 166 161 159 157 155 154 152 158 161 164 171 178 176 176 181 179 178 170 194 199 184 181 189 191 199 204 221 200 167 174 174 162 170 170 170
289 301 282 242 190 178 172 169 167 165 165 162 161 157 157 161 162 167 173 181 176 183 172 172 167 160 189 161 162 157 160 158 158 179 183 179 183 172 165 159 163 157 159
290 291 289 209 182 178 172 170 168 168 167 165 163 161 162 162 162 167 169 170 171 175 173 171 166 169 168 157 153 161 159 166 159 172 191 197 187 178 168 172 164 163 162
287 281 266 198 183 176 173 171 169 170 166 162 162 163 165 164 167 162 161 163 164 168 169 168 172 149 168 159 167 166 158 153 148 165 178 182 168 177 171 172 169 169 162
280 264 217 187 179 176 173 172 171 170 166 165 165 167 170 169 169 159 155 161 173 172 165 163 143 154 158 164 166 167 160 155 157 155 157 166 169 177 174 169 173 170 163
270 237 190 178 175 174 174 172 169 168 166 165 165 165 167 172 172 164 163 162 169 164 167 156 159 161 167 169 178 181 175 175 163 150 147 152 157 168 171 173 169 172 173
236 206 185 174 172 173 173 171 167 168 165 163 162 162 166 167 159 164 165 164 173 172 171 165 161 165 175 178 184 186 185 173 162 150 152 147 146 159 161 166 170 177 177
216 193 179 174 172 171 172 170 170 168 165 164 162 159 164 159 166 161 159 167 168 171 171 170 164 161 174 176 180 183 189 177 166 152 147 147 153 151 168 168 172 176 175
200 181 174 174 170 169 170 171 172 170 167 167 167 166 166 167 164 162 170 164 166 169 170 170 163 175 172 161 161 168 162 166 165 153 150 149 151 151 161 170 169 166 165
Wind_Speed_850mb
54 52 50 48 49 55 60 57 53 54 48 45 38 36 40 39 34 36 40 33 30 31 34 30 32 29 28 33 35 33 31 24 25 20 27 33 42 51 50 48 37 32 27
60 56 55 48 48 53 54 49 45 43 43 43 37 32 29 29 29 30 31 29 30 32 29 32 28 24 25 32 34 31 25 23 26 24 28 18 24 31 38 35 28 32 31
63 63 56 52 49 48 51 50 49 48 47 44 39 35 33 31 29 30 27 30 29 28 31 32 31 30 25 28 30 30 29 24 27 33 24 12 13 8 22 28 30 31 34
59 57 59 60 61 60 53 52 62 59 55 46 39 37 30 28 25 26 25 26 28 30 33 33 33 27 24 26 25 27 26 27 25 22 30 26 16 9 9 15 22 25 24
59 65 68 67 63 58 49 47 60 56 48 44 37 39 33 27 25 29 29 29 32 32 32 31 32 31 25 24 27 26 28 26 24 22 19 23 20 18 9 12 15 20 18
35 41 41 37 45 44 42 40 43 44 42 40 39 35 33 31 33 32 33 30 29 30 29 29 28 26 24 24 24 24 24 24 21 18 25 20 20 18 12 9 17 21 23
23 27 25 24 26 31 39 38 41 36 33 32 34 36 35 33 33 34 33 34 31 27 31 30 28 24 23 20 19 19 18 19 17 19 17 19 20 13 13 13 16 17 15
18 23 25 29 27 27 32 38 34 32 33 37 39 38 37 32 32 32 32 28 27 26 29 26 23 19 18 16 16 14 15 19 18 21 22 20 19 16 15 15 15 15 13
25 25 28 25 22 26 32 34 35 36 39 40 41 42 37 35 34 34 36 31 28 26 25 22 20 17 16 16 15 15 17 19 20 22 23 22 18 18 18 16 13 16 18
31 34 25 18 10 23 29 33 36 41 41 41 40 38 38 35 38 38 31 28 27 24 22 20 18 18 17 16 15 14 15 17 15 14 18 18 19 19 22 21 13 7 15
36 37 28 14 7 22 30 37 41 43 43 41 40 41 40 40 37 31 27 26 23 20 19 19 20 19 17 18 16 16 15 15 15 16 16 18 19 20 22 22 15 13 14
36 35 29 10 12 26 34 40 41 42 41 41 42 41 41 37 32 29 25 21 20 19 21 21 21 20 20 19 15 13 13 13 12 14 16 14 12 17 22 17 20 14 14
40 35 30 9 15 28 35 38 40 40 40 41 42 41 37 32 29 26 23 21 22 23 22 21 22 22 20 18 15 13 14 13 13 10 10 12 15 13 19 19 19 16 17
39 34 28 7 14 27 34 37 39 41 42 41 39 36 32 29 28 26 24 25 25 22 21 21 21 20 18 15 14 15 15 14 13 6 17 18 18 13 18 20 21 23 23
37 34 33 4 15 29 35 37 39 41 41 39 35 33 31 29 27 25 27 27 25 24 23 23 20 19 18 15 15 14 14 18 14 5 12 24 27 23 24 25 25 29 28
36 34 31 4 21 30 35 38 41 42 39 36 34 34 30 27 24 25 28 28 27 27 25 23 19 17 15 14 12 11 13 16 14 6 7 13 21 27 27 31 32 29 29
39 35 29 11 27 34 36 41 42 41 39 36 35 33 29 24 23 24 27 28 29 27 25 23 20 15 10 8 10 12 13 14 12 9 8 11 15 38 26 28 32 32 24
39 37 28 10 30 36 40 42 42 41 39 36 35 31 27 24 23 24 28 29 28 25 23 22 17 14 8 7 9 12 13 11 9 8 3 13 22 28 26 30 33 33 25
31 34 21 13 34 42 45 46 44 42 40 39 35 30 27 25 24 24 26 27 27 23 21 18 16 12 7 9 12 14 11 7 7 9 11 9 30 30 31 38 38 37 34
31 27 19 17 40 48 50 50 48 44 42 39 35 30 26 27 25 23 24 24 24 22 20 17 14 10 9 11 13 12 9 6 8 8 11 12 26 37 34 40 44 42 39
36 28 21 29 47 50 52 53 50 46 43 38 35 31 27 28 26 25 23 23 21 21 19 16 12 13 13 16 14 12 8 9 9 11 8 12 27 43 39 35 36 40 43
31 25 25 36 51 52 55 54 49 46 43 39 34 30 28 27 26 25 23 22 22 19 19 18 16 15 20 17 15 12 8 11 11 11 11 15 31 41 35 41 39 41 44
26 22 31 44 51 54 56 53 48 50 45 39 35 30 29 27 25 24 25 23 23 21 21 21 20 20 22 18 14 12 11 13 14 15 16 19 35 37 39 38 39 43 44
25 28 40 50 52 56 54 48 51 50 46 41 37 31 30 26 22 18 21 21 21 22 23 24 22 19 21 16 14 13 17 18 20 23 24 28 32 32 40 46 42 45 42
26 37 46 51 55 57 53 49 53 51 46 42 38 34 28 26 23 18 17 18 19 19 23 23 21 18 16 19 16 18 21 24 26 28 27 31 32 40 47 47 45 42 41
35 40 47 51 55 56 53 53 53 51 48 45 40 35 30 25 22 20 24 22 20 21 28 31 24 20 16 14 14 11 24 30 31 30 32 33 39 43 45 46 40 39 39
Wind_Direction_850mb
255 263 263 263 262 278 287 280 273 269 265 276 277 267 253 242 226 217 222 232 233 228 221 208 213 210 212 231 234 227 224 235 242 249 264 264 264 263 260 261 256 236 223
261 263 264 264 270 280 271 269 273 266 269 272 270 256 240 221 211 210 225 230 224 218 211 195 196 181 196 200 213 211 218 231 244 250 262 267 259 249 250 243 235 218 209
268 268 270 271 272 264 268 270 273 273 271 268 260 253 227 222 201 205 219 218 210 202 191 188 183 187 183 208 211 216 219 236 246 249 241 247 252 212 226 235 233 229 225
260 265 270 270 267 269 266 265 269 265 271 260 247 239 211 198 201 192 190 197 190 185 185 184 188 194 184 207 212 220 227 242 243 245 244 243 259 249 209 222 222 220 213
263 267 268 266 266 262 260 256 257 262 255 253 236 229 195 198 181 170 181 173 176 180 180 181 192 198 195 215 226 224 250 248 234 236 237 228 235 233 210 189 193 210 204
260 266 264 265 257 253 246 240 241 244 241 239 223 199 187 179 169 167 160 161 166 172 179 187 190 195 205 224 226 238 252 237 230 226 226 217 221 225 218 207 184 189 191
274 279 278 273 266 246 229 221 224 231 226 206 188 179 178 174 171 163 158 161 166 172 190 187 194 206 223 227 234 237 226 231 218 221 222 226 230 222 218 206 177 172 172
315 305 295 283 268 235 216 208 206 200 183 171 165 163 164 156 156 155 161 161 163 170 190 189 197 202 216 223 226 220 210 220 215 217 218 221 221 210 211 196 170 148 163
356 332 313 293 259 223 202 192 181 171 164 159 158 158 151 148 157 156 152 157 161 177 178 186 198 204 209 210 205 206 214 216 219 223 228 228 223 217 202 205 208 179 168
360 350 331 315 249 194 181 174 168 162 156 153 153 152 151 152 156 156 152 155 167 167 186 198 192 191 190 190 187 212 213 211 222 219 228 218 215 204 196 205 201 207 173
358 356 347 328 191 170 165 161 158 155 151 150 149 147 146 148 153 155 158 168 182 190 183 180 177 178 177 179 174 193 197 195 202 206 211 219 215 194 196 202 201 220 207
357 2 -0 11 156 158 157 156 155 151 149 147 145 146 144 147 149 151 160 181 173 171 170 167 169 168 173 181 184 192 207 197 204 208 217 224 213 203 192 202 214 220 199
350 359 8 33 146 155 156 154 151 148 149 147 147 146 144 148 151 155 160 163 165 162 161 165 171 169 180 189 194 208 199 188 193 174 201 206 207 215 203 187 199 196 180
337 351 4 9 151 159 157 153 151 149 147 149 149 145 147 151 151 153 156 160 159 161 163 170 169 178 191 202 205 203 190 180 194 298 239 225 229 235 217 195 183 165 159
323 342 348 353 182 165 159 156 153 151 152 151 149 146 148 150 150 151 156 160 160 159 164 164 170 173 181 191 189 193 191 184 189 241 294 233 240 224 205 186 186 169 167
313 325 331 330 199 170 163 160 158 157 154 151 150 150 152 153 155 157 160 160 158 161 166 169 172 165 171 175 189 189 183 188 205 242 303 227 205 197 182 182 195 167 181
299 314 320 300 196 177 170 166 163 159 155 152 152 152 152 157 159 161 166 168 175 170 171 174 171 164 187 210 214 197 179 182 201 226 287 212 195 179 189 190 183 175 185
295 302 302 277 192 179 172 168 166 161 159 157 155 154 152 158 161 164 171 178 176 176 181 179 178 170 194 199 184 181 189 191 199 204 221 200 167 174 174 162 170 170 170
289 301 282 242 190 178 172 169 167 165 165 162 161 157 157 161 162 167 173 181 176 183 172 172 167 160 189 161 162 157 160 158 158 179 183 179 183 172 165 159 163 157 159
290 291 289 209 182 178 172 170 168 168 167 165 163 161 162 162 162 167 169 170 171 175 173 171 166 169 168 157 153 161 159 166 159 172 191 197 187 178 168 172 164 163 162
287 281 266 198 183 176 173 171 169 170 166 162 162 163 165 164 167 162 161 163 164 168 169 168 172 149 168 159 167 166 158 153 148 165 178 182 168 177 171 172 169 169 162
280 264 217 187 179 176 173 172 171 170 166 165 165 167 170 169 169 159 155 161 173 172 165 163 143 154 158 164 166 167 160 155 157 155 157 166 169 177 174 169 173 170 163
270 237 190 178 175 174 174 172 169 168 166 165 165 165 167 172 172 164 163 162 169 164 167 156 159 161 167 169 178 181 175 175 163 150 147 152 157 168 171 173 169 172 173
236 206 185 174 172 173 173 171 167 168 165 163 162 162 166 167 159 164 165 164 173 172 171 165 161 165 175 178 184 186 185 173 162 150 152 147 146 159 161 166 170 177 177
216 193 179 174 172 171 172 170 170 168 165 164 162 159 164 159 166 161 159 167 168 171 171 170 164 161 174 176 180 183 189 177 166 152 147 147 153 151 168 168 172 176 175
200 181 174 174 170 169 170 171 172 170 167 167 167 166 166 167 164 162 170 164 166 169 170 170 163 175 172 161 161 168 162 166 165 153 150 149 151 151 161 170 169 166 165